| time (UTC) | temp C | wind direction | speed KPH | gust KPH | rain 1hr cm | rain 24hr cm | rain mn cm | humidity % | barometer mb |
| 20260504045139 | 32 | 303 | 16.1 | 0.0 | 0.00 | 0.00 | 0.00 | 24 | 1010.0 |
| 20260504042134 | 29 | 297 | 14.5 | 0.0 | 0.00 | 0.00 | 0.00 | 36 | 1011.0 |
| 20260504035130 | 29 | 297 | 14.5 | 0.0 | 0.00 | 0.00 | 0.00 | 37 | 1011.0 |
| 20260504032126 | 26 | 286 | 9.7 | 0.0 | 0.00 | 0.00 | 0.00 | 56 | 1011.0 |
| 20260504025121 | 26 | 286 | 9.7 | 0.0 | 0.00 | 0.00 | 0.00 | 55 | 1011.0 |
| 20260504022116 | 23 | 277 | 9.7 | 0.0 | 0.00 | 0.00 | 0.00 | 75 | 1010.0 |
| 20260504015111 | 23 | 277 | 9.7 | 0.0 | 0.00 | 0.00 | 0.00 | 75 | 1010.0 |
| 20260504012107 | 21 | 270 | 8.0 | 0.0 | 0.00 | 0.00 | 0.00 | 87 | 1010.0 |
| 20260504005101 | 22 | 270 | 8.0 | 0.0 | 0.00 | 0.00 | 0.00 | 87 | 1009.0 |
| 20260504002057 | 22 | 268 | 12.9 | 0.0 | 0.00 | 0.00 | 0.00 | 87 | 1009.0 |
| 20260503235052 | 22 | 261 | 8.0 | 0.0 | 0.00 | 0.00 | 0.00 | 87 | 1009.0 |
| 20260503232048 | 22 | 267 | 14.5 | 0.0 | 0.00 | 0.00 | 0.00 | 86 | 1008.0 |
| 20260503225043 | 22 | 267 | 14.5 | 0.0 | 0.00 | 0.00 | 0.00 | 86 | 1008.0 |
| 20260503222039 | 22 | 267 | 17.7 | 0.0 | 0.00 | 0.00 | 0.00 | 84 | 1008.0 |
| 20260503215034 | 22 | 267 | 17.7 | 0.0 | 0.00 | 0.00 | 0.00 | 84 | 1008.0 |
| 20260503212029 | 23 | 272 | 17.7 | 0.0 | 0.00 | 0.00 | 0.00 | 81 | 1008.0 |
| 20260503205025 | 23 | 272 | 17.7 | 0.0 | 0.00 | 0.00 | 0.00 | 81 | 1008.0 |
| 20260503202019 | 23 | 274 | 17.7 | 0.0 | 0.00 | 0.00 | 0.00 | 78 | 1008.0 |
| 20260503195015 | 23 | 274 | 17.7 | 0.0 | 0.00 | 0.00 | 0.00 | 78 | 1008.0 |
| 20260503192010 | 24 | 274 | 17.7 | 0.0 | 0.00 | 0.00 | 0.00 | 74 | 1009.0 |
| 20260503185006 | 24 | 274 | 17.7 | 0.0 | 0.00 | 0.00 | 0.00 | 73 | 1009.0 |
| 20260503182001 | 25 | 274 | 19.3 | 0.0 | 0.00 | 0.00 | 0.00 | 67 | 1009.0 |
| 20260503174957 | 25 | 274 | 19.3 | 0.0 | 0.00 | 0.00 | 0.00 | 67 | 1009.0 |
| 20260503171952 | 26 | 273 | 20.9 | 0.0 | 0.00 | 0.00 | 0.00 | 59 | 1009.0 |
| 20260503072042 | 37 | 315 | 9.7 | 0.0 | 0.00 | 0.00 | 0.00 | 15 | 1007.0 |